Station MBRM4 - 9014090 - Mouth of the Black River, MI Image indicating link to RSS feed of recent meteorological observations for station MBRM4


Conditions at MBRM4 as of
(7:18 am EDT)
1118 GMT on 04/21/2024:
     

Click on the graph icon in the table below to see a time series plot of the last five days of that observation.

5-day plot - Atmospheric Pressure Atmospheric Pressure (PRES):30.03 in
5-day plot - Air Temperature Air Temperature (ATMP): 38.7 °F
NOS Water Level Observation Network Water Level
Previous observations
TIME
(EDT)
5-day plot - Wind Direction
WDIR
 
5-day plot - Wind Speed
WSPD
kts
5-day plot - Wind Gust
GST
kts
5-day plot - Wave Height
WVHT
ft
5-day plot - Dominant Wave Period
DPD
sec
5-day plot - Average Wave Period
APD
sec
5-day plot - Mean Wave Direction
MWD
 
5-day plot - Atmospheric Pressure
PRES
in
5-day plot - Pressure Tendency
PTDY
in
5-day plot - Air Temperature
ATMP
°F
5-day plot - Water Temperature
WTMP
°F
5-day plot - Dew Point
DEWP
°F
5-day plot - Salinity
SAL
psu
5-day plot - Visibility
VIS
nmi
5-day plot - Tide (above MLLW)
TIDE
ft
2024-04-21 07:12 am-------30.04- 38.8-----
2024-04-21 07:06 am-------30.04- 38.8-----
2024-04-21 07:00 am-------30.04- 38.8-----
2024-04-21 06:54 am-------30.04- 38.8-----
2024-04-21 06:48 am-------30.04- 38.7-----
2024-04-21 06:42 am-------30.04- 38.8-----
2024-04-21 06:36 am-------30.04- 38.7-----
2024-04-21 06:30 am-------30.04-------
2024-04-21 06:24 am-------30.04-------
2024-04-21 06:18 am-------30.04- 38.8-----
2024-04-21 06:12 am-------30.04- 38.8-----
2024-04-21 06:06 am-------30.04- 38.8-----
2024-04-21 06:00 am-------30.04+0.01 39.0-----
2024-04-21 05:54 am-------30.04- 39.0-----
2024-04-21 05:48 am-------30.04- 39.0-----
2024-04-21 05:42 am-------30.04- 39.2-----
2024-04-21 05:36 am-------30.04- 39.0-----
2024-04-21 05:30 am-------30.04- 39.0-----
2024-04-21 05:24 am-------30.04- 39.2-----
2024-04-21 05:18 am-------30.04- 39.2-----
2024-04-21 05:12 am-------30.04- 39.0-----
2024-04-21 05:06 am-------30.04- 39.0-----
2024-04-21 05:00 am-------30.05+0.01 39.0-----
2024-04-21 04:54 am-------30.05- 39.2-----
2024-04-21 04:48 am-------30.05- 39.0-----
2024-04-21 04:42 am-------30.04- 39.0-----
2024-04-21 04:36 am-------30.04- 39.0-----
2024-04-21 04:30 am-------30.04- 39.2-----
2024-04-21 04:24 am-------30.04- 39.2-----
2024-04-21 04:18 am-------30.04-------
2024-04-21 04:12 am-------30.03-------
2024-04-21 04:06 am-------30.03-------
2024-04-21 04:00 am--------- 39.2-----
2024-04-21 03:54 am--------- 39.2-----
2024-04-21 03:48 am-------30.03- 39.2-----
2024-04-21 03:42 am-------30.03- 39.2-----
2024-04-21 03:36 am-------30.02- 39.2-----
2024-04-21 03:30 am-------30.02- 39.4-----
2024-04-21 03:24 am-------30.02- 39.4-----
2024-04-21 03:18 am-------30.02- 39.6-----
2024-04-21 03:12 am-------30.03- 39.7-----
2024-04-21 03:06 am-------30.03- 39.7-----
2024-04-21 03:00 am-------30.03-0.03 39.7-----
2024-04-21 02:54 am-------30.03- 39.9-----
2024-04-21 02:48 am-------30.03- 39.9-----
2024-04-21 02:42 am-------30.03- 40.1-----
2024-04-21 02:36 am-------30.03- 40.1-----
2024-04-21 02:30 am-------30.03- 40.5-----
2024-04-21 02:24 am-------30.03- 40.5-----
2024-04-21 02:18 am-------30.03- 40.6-----
2024-04-21 02:12 am-------30.03- 40.8-----
2024-04-21 02:06 am-------30.03- 40.8-----
2024-04-21 02:00 am-------30.03-0.04 41.0-----
2024-04-21 01:54 am-------30.03- 41.0-----
2024-04-21 01:48 am-------30.03- 41.2-----
2024-04-21 01:42 am-------30.03- 41.2-----
2024-04-21 01:36 am-------30.04- 41.4-----
2024-04-21 01:30 am-------30.04- 41.4-----
2024-04-21 01:24 am-------30.04- 41.4-----
2024-04-21 01:18 am-------30.05- 41.4-----
2024-04-21 01:12 am-------30.05- 41.4-----
2024-04-21 01:06 am-------30.05- 41.5-----
2024-04-21 01:00 am-------30.05-0.02 41.5-----
2024-04-21 12:54 am-------30.05- 41.7-----
2024-04-21 12:48 am-------30.05- 41.7-----
2024-04-21 12:42 am-------30.06- 41.9-----
2024-04-21 12:36 am-------30.05- 41.9-----
2024-04-21 12:30 am-------30.05- 41.7-----
2024-04-21 12:24 am-------30.05- 41.9-----
2024-04-21 12:18 am-------30.05- 41.9-----
2024-04-21 12:12 am-------30.05- 41.9-----
2024-04-21 12:06 am-------30.06- 41.9-----
2024-04-21 12:00 am-------30.06+0.00 42.1-----
2024-04-20 11:54 pm-------30.06- 42.1-----
2024-04-20 11:48 pm-------30.06- 42.1-----
2024-04-20 11:42 pm-------30.06- 42.3-----
2024-04-20 11:36 pm-------30.06- 42.3-----
2024-04-20 11:30 pm-------30.06- 42.3-----
2024-04-20 11:24 pm-------30.06- 42.4-----
2024-04-20 11:18 pm-------30.06- 42.4-----
2024-04-20 11:12 pm-------30.06- 42.4-----
2024-04-20 11:06 pm-------30.06- 42.4-----
2024-04-20 11:00 pm-------30.07+0.01 42.4-----
2024-04-20 10:54 pm-------30.07- 42.6-----
2024-04-20 10:48 pm-------30.07- 42.6-----
2024-04-20 10:42 pm-------30.07- 42.6-----
2024-04-20 10:36 pm-------30.07- 42.8-----
2024-04-20 10:30 pm-------30.07- 43.0-----
2024-04-20 10:24 pm-------30.07- 43.0-----
2024-04-20 10:18 pm-------30.08- 43.0-----
2024-04-20 10:12 pm-------30.07- 42.8-----
2024-04-20 10:06 pm-------30.08- 43.0-----
2024-04-20 10:00 pm-------30.07+0.01 43.0-----
2024-04-20 09:54 pm-------30.07- 43.0-----
2024-04-20 09:48 pm-------30.07- 43.2-----
2024-04-20 09:42 pm-------30.07- 43.2-----
2024-04-20 09:36 pm-------30.06- 43.2-----
2024-04-20 09:30 pm-------30.06- 43.3-----
2024-04-20 09:24 pm-------30.06- 43.3-----
2024-04-20 09:18 pm-------30.06- 43.3-----
2024-04-20 09:12 pm-------30.06- 43.3-----
2024-04-20 09:06 pm-------30.06- 43.3-----
2024-04-20 09:00 pm-------30.06+0.00 43.5-----
2024-04-20 08:54 pm-------30.06- 43.5-----
2024-04-20 08:48 pm-------30.06- 43.5-----
2024-04-20 08:42 pm-------30.06- 43.5-----
2024-04-20 08:36 pm-------30.06- 43.7-----
2024-04-20 08:30 pm-------30.06- 43.9-----
2024-04-20 08:24 pm-------30.06- 44.1-----
2024-04-20 08:18 pm--------- 44.2-----
2024-04-20 08:12 pm--------- 44.2-----
2024-04-20 08:06 pm--------- 44.2-----
2024-04-20 08:00 pm-------30.05+0.00 44.4-----
2024-04-20 07:54 pm-------30.05- 44.4-----
2024-04-20 07:48 pm-------30.05-------
2024-04-20 07:42 pm-------30.05-------
2024-04-20 07:36 pm-------30.05-------
2024-04-20 07:30 pm-------30.05- 44.8-----
2024-04-20 07:24 pm-------30.06- 45.0-----
2024-04-20 07:18 pm-------30.06-------
2024-04-20 07:12 pm-------30.06-------
2024-04-20 07:06 pm-------30.06-------
2024-04-20 07:00 pm-------30.06+0.00 45.0-----
2024-04-20 06:54 pm-------30.06- 45.0-----
2024-04-20 06:48 pm-------30.07- 45.1-----
2024-04-20 06:42 pm-------30.07- 45.3-----
2024-04-20 06:36 pm-------30.07- 45.0-----
2024-04-20 06:30 pm-------30.07- 45.1-----
2024-04-20 06:24 pm-------30.06- 45.3-----
2024-04-20 06:18 pm-------30.06- 45.3-----
2024-04-20 06:12 pm-------30.06- 45.1-----
2024-04-20 06:06 pm-------30.06- 45.1-----
2024-04-20 06:00 pm-------30.06+0.00 45.5-----
2024-04-20 05:54 pm-------30.06- 45.7-----
2024-04-20 05:48 pm-------30.06- 45.7-----
2024-04-20 05:42 pm-------30.06- 46.0-----
2024-04-20 05:36 pm-------30.06- 45.5-----
2024-04-20 05:30 pm-------30.06- 45.9-----
2024-04-20 05:24 pm-------30.06- 45.3-----
2024-04-20 05:18 pm-------30.06- 45.3-----
2024-04-20 05:12 pm-------30.06- 45.0-----
2024-04-20 05:06 pm-------30.06- 45.0-----
2024-04-20 05:00 pm-------30.06+0.00 45.1-----
2024-04-20 04:54 pm-------30.06- 45.3-----
2024-04-20 04:48 pm-------30.06-------
2024-04-20 04:42 pm-------30.06-------
2024-04-20 04:36 pm-------30.05-------
2024-04-20 04:30 pm-------30.06- 45.5-----
2024-04-20 04:24 pm-------30.06- 45.3-----
2024-04-20 04:18 pm--------- 46.0-----
2024-04-20 04:12 pm--------- 46.0-----
2024-04-20 04:06 pm--------- 45.7-----
2024-04-20 04:00 pm-------30.06+0.00 45.7-----
2024-04-20 03:54 pm-------30.06- 45.1-----
2024-04-20 03:48 pm-------30.06- 44.8-----
2024-04-20 03:42 pm-------30.06- 44.8-----
2024-04-20 03:36 pm-------30.06- 44.4-----
2024-04-20 03:30 pm-------30.06- 45.0-----
2024-04-20 03:24 pm-------30.06- 45.1-----
2024-04-20 03:18 pm-------30.05- 44.8-----
2024-04-20 03:12 pm-------30.06- 45.3-----
2024-04-20 03:06 pm-------30.06- 45.5-----
2024-04-20 03:00 pm-------30.06+0.00------
2024-04-20 02:54 pm-------30.06-------
2024-04-20 02:48 pm-------30.06- 45.5-----
2024-04-20 02:42 pm-------30.06- 44.8-----
2024-04-20 02:36 pm-------30.06- 45.1-----
2024-04-20 02:30 pm--------- 45.7-----
2024-04-20 02:24 pm--------- 45.7-----
2024-04-20 02:18 pm-------30.06- 46.4-----
2024-04-20 02:12 pm-------30.06- 45.0-----
2024-04-20 02:06 pm-------30.06- 45.0-----
2024-04-20 02:00 pm-------30.06+0.01 45.1-----
2024-04-20 01:54 pm-------30.06- 45.9-----
2024-04-20 01:48 pm-------30.06- 45.1-----
2024-04-20 01:42 pm-------30.06- 45.0-----
2024-04-20 01:36 pm-------30.06- 44.1-----
2024-04-20 01:30 pm-------30.06- 44.2-----
2024-04-20 01:24 pm-------30.05- 43.9-----
2024-04-20 01:18 pm-------30.05- 43.7-----
2024-04-20 01:12 pm-------30.05- 43.5-----
2024-04-20 01:06 pm-------30.06- 43.5-----
2024-04-20 01:00 pm-------30.06+0.03 43.3-----
2024-04-20 12:54 pm-------30.05- 44.4-----
2024-04-20 12:48 pm-------30.05- 44.4-----
2024-04-20 12:42 pm-------30.05- 45.1-----
2024-04-20 12:36 pm-------30.05- 45.9-----
2024-04-20 12:30 pm-------30.05- 45.1-----
2024-04-20 12:24 pm-------30.05- 44.4-----
2024-04-20 12:18 pm-------30.05- 45.1-----
2024-04-20 12:12 pm-------30.05- 45.5-----
2024-04-20 12:06 pm-------30.05- 45.3-----
2024-04-20 12:00 pm-------30.05+0.04 44.1-----
2024-04-20 11:54 am-------30.05- 43.3-----
2024-04-20 11:48 am-------30.05- 44.1-----
2024-04-20 11:42 am-------30.05- 43.2-----
2024-04-20 11:36 am-------30.05- 43.2-----
2024-04-20 11:30 am-------30.05- 43.5-----
2024-04-20 11:24 am-------30.04- 43.5-----
2024-04-20 11:18 am-------30.04- 44.1-----
2024-04-20 11:12 am-------30.04- 43.2-----
2024-04-20 11:06 am-------30.04- 42.1-----
2024-04-20 11:00 am-------30.04+0.05 42.8-----
2024-04-20 10:54 am-------30.04- 41.9-----
2024-04-20 10:48 am-------30.04- 42.3-----
2024-04-20 10:42 am-------30.03- 41.9-----
2024-04-20 10:36 am-------30.03- 41.4-----
2024-04-20 10:30 am-------30.03- 41.4-----
2024-04-20 10:24 am-------30.03- 41.2-----
2024-04-20 10:18 am-------30.03- 41.2-----
2024-04-20 10:12 am-------30.03- 41.5-----
2024-04-20 10:06 am-------30.03- 41.2-----
2024-04-20 10:00 am-------30.03+0.05 41.2-----
2024-04-20 09:54 am-------30.03- 41.4-----
2024-04-20 09:48 am-------30.03-------
2024-04-20 09:42 am-------30.02-------
2024-04-20 09:36 am-------30.02-------
2024-04-20 09:30 am-------30.01- 41.5-----
2024-04-20 09:24 am-------30.01- 41.7-----
2024-04-20 09:18 am-------30.01- 42.3-----
2024-04-20 09:12 am-------30.01- 41.9-----
2024-04-20 09:06 am-------30.01- 41.2-----
2024-04-20 09:00 am-------30.01+0.05 41.5-----
2024-04-20 08:54 am-------30.01- 41.4-----
2024-04-20 08:48 am-------30.01- 40.6-----
2024-04-20 08:42 am-------30.00- 40.6-----
2024-04-20 08:36 am-------30.00- 40.8-----
2024-04-20 08:30 am-------30.00- 40.5-----
2024-04-20 08:24 am-------30.00- 40.5-----
2024-04-20 08:18 am-------29.99- 40.3-----
2024-04-20 08:12 am-------30.00- 40.5-----
2024-04-20 08:06 am-------29.99- 40.5-----
2024-04-20 08:00 am-------29.99+0.04 40.3-----
2024-04-20 07:54 am-------29.99- 40.5-----